Simultaneous Nadir Overpasses (SNOs) Predictions

Prediction of SNOs between GOES-15 and TERRA Satellite Orbit:

Table of predicted SNOs for the next 14.0 days since TLE Epoch: 3/14/2025
Index Date Time (GOES-15) GOES-15 Lat,Lon TERRA Lat,Lon Distance(km) Time Diff (sec)
1 03/15/2025 17:07:31 0.04, 61.26 0.81, 64.93 416.77 80
2 03/16/2025 05:27:05 -0.05, 61.30 0.17, 60.17 128.54 80
3 03/18/2025 05:10:56 -0.05, 61.30 -0.78, 64.70 387.19 80
4 03/18/2025 17:30:37 0.06, 61.25 -0.22, 59.91 152.44 80
5 03/20/2025 17:09:07 0.06, 61.26 0.71, 64.45 362.33 80
6 03/21/2025 05:28:41 -0.07, 61.31 0.24, 59.68 183.92 80
7 03/23/2025 05:12:30 -0.07, 61.32 -0.69, 64.23 330.72 80
8 03/23/2025 17:32:11 0.08, 61.27 -0.30, 59.44 208.56 80
9 03/25/2025 17:10:40 0.08, 61.29 0.66, 63.98 305.69 80
10 03/26/2025 05:30:11 -0.09, 61.35 0.37, 59.23 241.14 80
11 03/28/2025 05:13:59 -0.08, 61.37 -0.59, 63.78 273.58 80
12 03/28/2025 17:33:40 0.09, 61.32 -0.39, 58.98 265.15 80
